Date String (YYYY-MM-DD hh:mm:ss) UTC,Instrument flags,Ambient pressure (hPa),Sample flow (lpm),Bypass flow (lpm),Sample temperature (°C),Ambient temperature (°C),ASC tube jacket temperature (°C),LED temperature (°C),Box temperature (°C),Sample RH (%),Span deviation,Mass concentration (μg/m³),Mass concentration (μg/m³),Mass concentration (μg/m³)
DateTimeUTC,F1_M11,P_M11,Q1_M11,Q2_M11,T1_M11,T2_M11,T3_M11,T4_M11,T5_M11,U1_M11,ZSPAN_M11,X0_M11,X2_M11,X1_M11
2022-01-02 22:00:00,,0828.4,4.99,0.00,29.0,28.3,00.0,37.9,30.8,08.3,0000.0,0001.91,0000.04,0000.01
2022-01-02 22:01:00,,0828.4,5.02,0.00,29.0,28.3,00.0,37.9,30.7,08.3,0000.0,0001.91,0000.04,0000.01
2022-01-02 22:02:00,,0828.5,4.99,0.00,29.0,28.3,00.0,38.0,30.7,08.2,0000.0,0001.91,0000.04,0000.01
2022-01-02 22:03:00,,0828.5,5.01,0.00,29.0,28.3,00.0,38.0,30.8,08.2,0000.0,0001.91,0000.04,0000.01
2022-01-02 22:04:00,,0828.5,4.99,0.00,29.0,28.3,00.0,38.0,30.8,08.2,0000.0,0001.91,0000.04,0000.01
2022-01-02 22:05:00,,0828.5,5.01,0.00,29.0,28.3,00.0,38.0,30.8,08.1,0000.0,0001.89,0000.03,0000.01
2022-01-02 22:06:00,,0828.5,5.00,0.00,29.0,28.3,00.0,38.0,30.8,08.2,0000.0,0001.94,0000.03,0000.01
2022-01-02 22:07:00,,0828.5,4.99,0.00,29.1,28.3,00.0,38.0,30.8,08.2,0000.0,0001.71,0000.04,0000.01
2022-01-02 22:08:00,,0828.5,5.01,0.00,29.1,28.3,00.0,38.0,30.8,08.1,0000.0,0001.38,0000.03,0000.00
2022-01-02 22:09:00,,0828.7,5.00,0.00,29.1,28.3,00.0,38.0,30.8,08.2,0000.0,0001.38,0000.03,0000.00
2022-01-02 22:10:00,,0829.0,5.00,0.00,29.1,28.3,00.0,38.0,30.8,08.3,0000.0,0001.34,0000.04,0000.01
2022-01-02 22:11:00,,0828.7,4.99,0.00,29.1,28.3,00.0,38.0,30.9,08.3,0000.0,0000.15,0000.03,0000.01
2022-01-02 22:12:00,,0828.8,5.00,0.00,29.1,28.3,00.0,38.0,30.9,08.3,0000.0,0000.15,0000.03,0000.01
2022-01-02 22:13:00,,0828.9,5.00,0.00,29.1,28.3,00.0,38.0,30.8,08.2,0000.0,0000.15,0000.03,0000.01
2022-01-02 22:14:00,,0829.0,5.00,0.00,29.1,28.3,00.0,38.0,30.8,08.2,0000.0,0000.15,0000.03,0000.01
2022-01-02 22:15:00,,0829.1,5.00,0.00,29.1,28.3,00.0,38.0,30.8,08.2,0000.0,0000.15,0000.03,0000.01
2022-01-02 22:16:00,,0829.0,4.99,0.00,29.1,28.3,00.0,38.0,30.9,08.2,0000.0,0000.38,0000.03,0000.01
2022-01-02 22:17:00,,0829.0,5.00,0.00,29.1,28.3,00.0,38.0,30.9,08.1,0000.0,0002.42,0000.02,0000.01
2022-01-02 22:18:00,,0828.7,4.98,0.00,29.1,28.3,00.0,38.0,30.9,08.1,0000.0,0002.99,0000.01,0000.01
2022-01-02 22:19:00,,0828.9,5.02,0.00,29.1,28.3,00.0,38.0,30.9,08.1,0000.0,0002.99,0000.01,0000.01
2022-01-02 22:20:00,,0828.7,4.99,0.00,29.1,28.3,00.0,38.1,30.9,08.1,0000.0,0003.01,0000.01,0000.01
2022-01-02 22:21:00,,0828.8,4.99,0.00,29.1,28.3,00.0,38.0,30.9,08.0,0000.0,0003.71,0000.02,0000.01
2022-01-02 22:22:00,,0828.6,5.00,0.00,29.1,28.3,00.0,38.1,30.9,08.0,0000.0,0003.74,0000.03,0000.01
2022-01-02 22:23:00,,0829.0,4.99,0.00,29.1,28.3,00.0,38.1,30.9,07.9,0000.0,0003.74,0000.03,0000.01
2022-01-02 22:24:00,,0828.9,5.01,0.00,29.1,28.3,00.0,38.1,30.9,07.8,0000.0,0003.74,0000.03,0000.01
2022-01-02 22:25:00,,0829.0,4.99,0.00,29.1,28.3,00.0,38.1,30.9,07.7,0000.0,0003.74,0000.03,0000.01
2022-01-02 22:26:00,,0829.1,5.02,0.00,29.1,28.3,00.0,38.1,30.9,07.7,0000.0,0003.74,0000.02,0000.01
2022-01-02 22:27:00,,0829.1,4.99,0.00,29.1,28.3,00.0,38.1,30.9,07.7,0000.0,0003.41,0000.02,0000.01
2022-01-02 22:28:00,,0829.0,4.99,0.00,29.1,28.3,00.0,38.1,30.9,07.6,0000.0,0001.26,0000.02,0000.01
2022-01-02 22:29:00,,0828.7,5.00,0.00,29.1,28.3,00.0,38.0,30.9,07.6,0000.0,0000.76,0000.02,0000.01
2022-01-02 22:30:00,,0828.8,5.00,0.00,29.1,28.3,00.0,38.0,30.9,07.7,0000.0,0000.81,0000.05,0000.01
2022-01-02 22:31:00,,0828.9,4.99,0.00,29.1,28.3,00.0,38.0,30.9,07.6,0000.0,0000.81,0000.06,0000.00
2022-01-02 22:32:00,,0829.0,5.02,0.00,29.1,28.3,00.0,38.0,30.9,07.5,0000.0,0000.17,0000.06,0000.00
2022-01-02 22:33:00,,0828.7,4.98,0.00,29.1,28.3,00.0,38.0,30.9,07.5,0000.0,0000.19,0000.06,0000.00
2022-01-02 22:34:00,,0828.7,5.02,0.00,29.1,28.3,00.0,38.0,30.9,07.3,0000.0,0000.21,0000.06,0000.00
2022-01-02 22:35:00,,0828.8,4.99,0.00,29.1,28.3,00.0,38.0,30.9,07.3,0000.0,0000.21,0000.06,0000.00
2022-01-02 22:36:00,,0828.7,4.99,0.00,29.1,28.3,00.0,38.0,30.9,07.4,0000.0,0000.28,0000.09,0000.00
2022-01-02 22:37:00,,0828.7,5.00,0.00,29.1,28.3,00.0,38.0,30.9,07.5,0000.0,0000.33,0000.10,0000.01
2022-01-02 22:38:00,,0828.6,5.00,0.00,29.1,28.3,00.0,38.0,30.8,07.4,0000.0,0001.45,0000.10,0000.01
2022-01-02 22:39:00,,0829.0,4.99,0.00,29.1,28.3,00.0,38.0,30.9,07.3,0000.0,0001.45,0000.10,0000.01
2022-01-02 22:40:00,,0829.3,5.01,0.00,29.1,28.3,00.0,38.0,30.9,07.2,0000.0,0001.45,0000.10,0000.01
2022-01-02 22:41:00,,0829.1,4.99,0.00,29.1,28.3,00.0,38.0,30.9,07.2,0000.0,0001.40,0000.07,0000.01
2022-01-02 22:42:00,,0829.2,4.99,0.00,29.1,28.3,00.0,38.0,30.9,07.3,0000.0,0001.42,0000.08,0000.01
2022-01-02 22:43:00,,0828.9,5.01,0.00,29.1,28.2,00.0,38.0,30.8,07.3,0000.0,0001.38,0000.08,0000.01
2022-01-02 22:44:00,,0828.7,4.99,0.00,29.1,28.2,00.0,38.0,30.8,07.1,0000.0,0002.21,0000.08,0000.01
2022-01-02 22:45:00,,0828.7,5.01,0.00,29.1,28.3,00.0,38.0,30.8,07.2,0000.0,0003.06,0000.09,0000.01
2022-01-02 22:46:00,,0828.7,4.98,0.00,29.1,28.3,00.0,38.0,30.8,07.2,0000.0,0003.13,0000.11,0000.01
2022-01-02 22:47:00,,0828.7,5.00,0.00,29.1,28.2,00.0,38.0,30.8,07.2,0000.0,0003.26,0000.09,0000.01
2022-01-02 22:48:00,,0829.0,5.00,0.00,29.1,28.2,00.0,38.0,30.8,07.2,0000.0,0003.38,0000.08,0000.01
2022-01-02 22:49:00,,0829.1,4.99,0.00,29.1,28.2,00.0,38.0,30.8,07.1,0000.0,0002.31,0000.08,0000.01
2022-01-02 22:50:00,,0828.9,4.99,0.00,29.0,28.2,00.0,38.0,30.8,07.1,0000.0,0002.23,0000.08,0000.01
2022-01-02 22:51:00,,0828.9,5.01,0.00,29.0,28.2,00.0,38.0,30.8,07.1,0000.0,0002.29,0000.09,0000.01
2022-01-02 22:52:00,,0828.9,4.98,0.00,29.0,28.2,00.0,38.0,30.8,07.0,0000.0,0002.39,0000.10,0000.01
2022-01-02 22:53:00,,0828.9,5.02,0.00,29.0,28.2,00.0,38.0,30.8,07.0,0000.0,0003.27,0000.08,0000.01
2022-01-02 22:54:00,,0828.9,4.99,0.00,29.0,28.2,00.0,38.0,30.8,07.0,0000.0,0003.39,0000.08,0000.01
2022-01-02 22:55:00,,0828.9,5.01,0.00,29.0,28.2,00.0,38.0,30.7,07.0,0000.0,0002.84,0000.09,0000.01
2022-01-02 22:56:00,,0828.9,4.99,0.00,29.0,28.2,00.0,38.0,30.8,07.1,0000.0,0002.28,0000.07,0000.01
2022-01-02 22:57:00,,0828.9,5.01,0.00,29.0,28.2,00.0,38.0,30.8,07.1,0000.0,0002.22,0000.06,0000.01
2022-01-02 22:58:00,,0829.0,4.99,0.00,29.0,28.2,00.0,38.0,30.7,07.1,0000.0,0002.26,0000.06,0000.01
2022-01-02 22:59:00,,0829.0,5.00,0.00,29.0,28.2,00.0,37.9,30.7,07.0,0000.0,0002.92,0000.05,0000.01
